Regional Weather Roundup
Issued by NWS Little Rock, AR

Home | Current Version | Previous Version | Text Only | Print | Product List | Glossary On
Versions: 1 2 3 4 5 6 7 8 9 10 11 12 13 14 15 16 17 18 19 20 21 22 23 24 25 26 27 28 29 30 31 32 33 34 35 36 37 38 39 40 41 42 43 44 45 46 47 48 49 50
000
ASUS44 KLZK 041105
RWRLZK

WEATHER ROUNDUP FOR ARKANSAS
NATIONAL WEATHER SERVICE LITTLE ROCK AR
600 AM CDT WED MAY 04 2016

NOTE: "FAIR" INDICATES FEW OR NO CLOUDS BELOW 12,000 FEET WITH NO
SIGNIFICANT WEATHER AND/OR OBSTRUCTIONS TO VISIBILITY.

ARZ001-003-010-029-041200-
NORTHWEST ARKANSAS

CITY           SKY/WX    TMP DP  RH WIND       PRES   REMARKS
FAYETTEVILLE   CLEAR     51  46  83 SW10      29.96F
FORT SMITH     CLEAR     49  45  86 W7        29.98S
HARRISON       CLEAR     57  43  59 W12G22    29.91F
BENTONVILLE    CLEAR     48  41  76 SW6       29.95F
ROGERS         PTCLDY    49  44  83 SW8       29.95F
SILOAM SPGS    CLEAR     48  39  71 SW7       29.97S
HIGHFILL       PTCLDY    50  46  86 SW10      29.94F
SPRINGDALE     CLEAR     52  45  76 SW7       29.97
$$

ARZ004-005-016-041200-
NORTH CENTRAL ARKANSAS

CITY           SKY/WX    TMP DP  RH WIND       PRES   REMARKS
BATESVILLE     PTCLDY    46  43  87 CALM      29.91S
FLIPPIN        CLEAR    N/A N/A N/A CALM      29.87S
MTN HOME       CLEAR     50  42  74 SW5       29.88F
$$

ARZ040-041-041200-
WEST CENTRAL ARKANSAS

CITY           SKY/WX    TMP DP  RH WIND       PRES   REMARKS
MENA           CLEAR     46  46 100 CALM      30.00F
MOUNT IDA      CLEAR     46  43  89 CALM      29.95F
$$

ARZ009-017-025-026-028-041200-
NORTHEAST ARKANSAS

CITY           SKY/WX    TMP DP  RH WIND       PRES   REMARKS
CORNING          N/A     50  46  87 SW7       29.87F
JONESBORO      CLEAR     51  45  79 W6        29.88F
NEWPORT        PTCLDY    52  45  77 SW6       29.91F
WALNUT RIDGE   CLEAR     52  43  71 SW8       29.87F
BLYTHEVILLE    CLEAR     52  47  83 SW5       29.88S
$$

ARZ022-023-033-042-044-041200-
CENTRAL ARKANSAS

CITY           SKY/WX    TMP DP  RH WIND       PRES   REMARKS
LITTLE ROCK    PTCLDY    51  46  83 W6        29.95F
N LITTLE ROCK    N/A     54  46  72 W3        29.93F
JACKSONVILLE   PTCLDY    48  47  94 W5        29.93F
SEARCY         PTCLDY    45  45 100 CALM      29.94F
HOT SPRINGS    PTCLDY    49  46  90 W5        29.97F
RUSSELLVILLE   CLEAR     46  45  96 CALM      29.96F
$$

ARZ036-041200-
EAST ARKANSAS

CITY           SKY/WX    TMP DP  RH WIND       PRES   REMARKS
WEST MEMPHIS   CLEAR     52  50  93 SW5       29.90F
$$

ARZ050-053-066-070-073-041200-
SOUTHWEST ARKANSAS

CITY           SKY/WX    TMP DP  RH WIND       PRES   REMARKS
ARKADELPHIA    FAIR      52  52 100 S3        29.98F
CAMDEN         CLEAR     48  46  93 CALM      29.98F FOG
TEXARKANA      CLEAR     50  48  93 SW5       30.00F
EL DORADO      CLEAR     49  48  97 CALM      29.99F
DE QUEEN       PTCLDY    46  46 100 CALM      29.99F FOG
$$

ARZ056-057-069-041200-
SOUTHEAST ARKANSAS

CITY           SKY/WX    TMP DP  RH WIND       PRES   REMARKS
PINE BLUFF     CLEAR     52  47  83 W6        29.96F
STUTTGART      CLEAR     54  46  76 W7        29.94F
MONTICELLO     CLEAR     51  48  89 W5        29.96F

$$





USA.gov is the U.S. government's official web portal to all federal, state and local government web resources and services.